| time (UTC) | temp F | wind direction | speed MPH | gust MPH | rain 1hr in | rain 24hr in | rain mn in | humidity % | barometer mb |
| 20260905101603 | 63 | 315 | 1.0 | 4.0 | 0.00 | 0.00 | 0.00 | 83 | 1001.4 |
| 20260905100117 | 63 | 0 | 1.0 | 3.0 | 0.00 | 0.00 | 0.00 | 85 | 1001.2 |
| 20260905094557 | 62 | 0 | 0.0 | 0.0 | 0.00 | 0.00 | 0.00 | 85 | 1001.3 |
| 20260905093103 | 62 | 0 | 0.0 | 2.0 | 0.00 | 0.00 | 0.00 | 85 | 1001.4 |
| 20260905091602 | 62 | 0 | 1.0 | 4.0 | 0.00 | 0.00 | 0.00 | 85 | 1001.4 |
| 20260905090131 | 62 | 0 | 0.0 | 1.0 | 0.00 | 0.00 | 0.00 | 84 | 1001.4 |
| 20260905084613 | 63 | 0 | 0.0 | 2.0 | 0.00 | 0.01 | 0.00 | 83 | 1001.5 |
| 20260905083056 | 63 | 0 | 0.0 | 2.0 | 0.00 | 0.01 | 0.00 | 81 | 1001.4 |
| 20260905081552 | 64 | 24 | 1.0 | 4.0 | 0.00 | 0.01 | 0.00 | 79 | 1001.1 |
| 20260905080059 | 66 | 0 | 0.0 | 3.0 | 0.00 | 0.01 | 0.00 | 77 | 1001.4 |
| 20260905074553 | 66 | 0 | 2.0 | 8.0 | 0.00 | 0.07 | 0.00 | 75 | 1001.3 |
| 20260905073055 | 67 | 215 | 3.0 | 8.0 | 0.00 | 0.07 | 0.00 | 74 | 1001.4 |
| 20260905071553 | 67 | 85 | 1.0 | 10.0 | 0.00 | 0.07 | 0.00 | 74 | 1001.4 |
| 20260905070058 | 67 | 4 | 3.0 | 9.0 | 0.00 | 0.07 | 0.00 | 74 | 1001.7 |
| 20260905064555 | 67 | 316 | 3.0 | 9.0 | 0.00 | 0.23 | 0.00 | 74 | 1001.8 |
| 20260905063057 | 67 | 309 | 3.0 | 7.0 | 0.00 | 0.23 | 0.00 | 74 | 1001.8 |
| 20260905061555 | 66 | 339 | 2.0 | 9.0 | 0.00 | 0.23 | 0.00 | 75 | 1001.9 |
| 20260905054555 | 65 | 0 | 1.0 | 5.0 | 0.00 | 0.24 | 0.00 | 78 | 1002.2 |
| 20260905053105 | 65 | 0 | 0.0 | 3.0 | 0.00 | 0.24 | 0.00 | 79 | 1002.3 |
| 20260905051559 | 65 | 0 | 0.0 | 5.0 | 0.00 | 0.24 | 0.00 | 79 | 1002.5 |
| 20260905050059 | 65 | 0 | 1.0 | 4.0 | 0.00 | 0.24 | 0.00 | 82 | 1002.6 |
| 20260905044603 | 65 | 114 | 1.0 | 5.0 | 0.00 | 0.24 | 0.00 | 82 | 1002.5 |
| 20260905043102 | 65 | 0 | 0.0 | 0.0 | 0.00 | 0.24 | 0.00 | 83 | 1002.5 |
| 20260905041559 | 65 | 0 | 0.0 | 0.0 | 0.00 | 0.24 | 0.00 | 83 | 1002.4 |
| 20260905040056 | 65 | 0 | 0.0 | 0.0 | 0.00 | 0.24 | 0.00 | 82 | 1002.5 |
| 20260905034616 | 66 | 0 | 0.0 | 0.0 | 0.00 | 0.24 | 0.24 | 83 | 1002.4 |
| 20260905033112 | 66 | 0 | 0.0 | 0.0 | 0.00 | 0.24 | 0.24 | 83 | 1002.6 |
| 20260905031604 | 66 | 0 | 0.0 | 0.0 | 0.00 | 0.24 | 0.24 | 83 | 1002.4 |
| 20260905030054 | 66 | 0 | 0.0 | 2.0 | 0.00 | 0.24 | 0.24 | 83 | 1002.3 |
| 20260905024603 | 66 | 0 | 0.0 | 0.0 | 0.00 | 0.24 | 0.24 | 82 | 1002.5 |
| 20260905023058 | 66 | 0 | 0.0 | 2.0 | 0.00 | 0.24 | 0.24 | 82 | 1002.5 |
| 20260905021556 | 66 | 0 | 0.0 | 2.0 | 0.00 | 0.24 | 0.24 | 81 | 1002.5 |
| 20260905020056 | 67 | 0 | 0.0 | 3.0 | 0.00 | 0.24 | 0.24 | 80 | 1002.6 |
| 20260905014615 | 67 | 3 | 0.0 | 5.0 | 0.00 | 0.24 | 0.24 | 79 | 1002.6 |
| 20260905013119 | 68 | 0 | 0.0 | 4.0 | 0.00 | 0.24 | 0.24 | 79 | 1002.7 |
| 20260905011559 | 68 | 29 | 0.0 | 5.0 | 0.00 | 0.24 | 0.24 | 78 | 1002.9 |
| 20260905010107 | 69 | 345 | 0.0 | 3.0 | 0.00 | 0.24 | 0.24 | 77 | 1002.7 |
| 20260905004656 | 70 | 334 | 0.0 | 5.0 | 0.00 | 0.24 | 0.24 | 76 | 1002.6 |
| 20260905003059 | 69 | 356 | 0.0 | 3.0 | 0.00 | 0.24 | 0.24 | 78 | 1002.7 |
| 20260905001605 | 69 | 0 | 0.0 | 5.0 | 0.00 | 0.24 | 0.24 | 79 | 1002.5 |
| 20260905000105 | 69 | 0 | 0.0 | 1.0 | 0.00 | 0.24 | 0.24 | 81 | 1002.2 |
| 20260904234603 | 70 | 0 | 0.0 | 3.0 | 0.00 | 0.24 | 0.24 | 80 | 1001.9 |
| 20260904233104 | 70 | 0 | 0.0 | 0.0 | 0.00 | 0.24 | 0.24 | 80 | 1002.1 |
| 20260904231601 | 71 | 0 | 0.0 | 1.0 | 0.00 | 0.24 | 0.24 | 78 | 1001.9 |
| 20260904230110 | 71 | 0 | 0.0 | 1.0 | 0.00 | 0.24 | 0.24 | 78 | 1002.0 |
| 20260904224559 | 72 | 0 | 0.0 | 2.0 | 0.00 | 0.24 | 0.24 | 76 | 1001.9 |
| 20260904223111 | 73 | 0 | 0.0 | 2.0 | 0.00 | 0.24 | 0.24 | 77 | 1002.0 |
| 20260904221558 | 74 | 0 | 0.0 | 2.0 | 0.00 | 0.24 | 0.24 | 75 | 1001.5 |
| 20260904220105 | 75 | 0 | 0.0 | 2.0 | 0.00 | 0.24 | 0.24 | 74 | 1001.6 |
| 20260904214612 | 76 | 304 | 0.0 | 4.0 | 0.00 | 0.24 | 0.24 | 75 | 1001.6 |
| 20260904213059 | 77 | 0 | 0.0 | 2.0 | 0.00 | 0.24 | 0.24 | 75 | 1001.5 |
| 20260904211559 | 77 | 0 | 0.0 | 0.0 | 0.00 | 0.24 | 0.24 | 75 | 1001.4 |
| 20260904204556 | 79 | 0 | 0.0 | 0.0 | 0.00 | 0.24 | 0.24 | 73 | 1001.7 |
| 20260904203104 | 79 | 0 | 0.0 | 2.0 | 0.00 | 0.24 | 0.24 | 69 | 1001.8 |
| 20260904201603 | 79 | 96 | 1.0 | 4.0 | 0.00 | 0.24 | 0.24 | 66 | 1001.9 |
| 20260904200120 | 80 | 0 | 0.0 | 2.0 | 0.00 | 0.24 | 0.24 | 65 | 1002.0 |
| 20260904194610 | 79 | 0 | 0.0 | 4.0 | 0.00 | 0.24 | 0.24 | 64 | 1001.9 |
| 20260904193056 | 79 | 112 | 1.0 | 4.0 | 0.00 | 0.24 | 0.24 | 67 | 1001.9 |
| 20260904191601 | 78 | 123 | 0.0 | 2.0 | 0.00 | 0.24 | 0.24 | 67 | 1001.9 |
| 20260904190101 | 77 | 123 | 0.0 | 3.0 | 0.00 | 0.24 | 0.24 | 67 | 1001.9 |
| 20260904184613 | 77 | 123 | 1.0 | 3.0 | 0.00 | 0.24 | 0.24 | 64 | 1002.2 |
| 20260904183053 | 77 | 99 | 0.0 | 7.0 | 0.00 | 0.24 | 0.24 | 64 | 1002.5 |
| 20260904181612 | 78 | 127 | 0.0 | 2.0 | 0.00 | 0.24 | 0.24 | 67 | 1002.6 |
| 20260904180058 | 78 | 100 | 1.0 | 3.0 | 0.00 | 0.24 | 0.24 | 67 | 1002.6 |
| 20260904174603 | 78 | 299 | 1.0 | 6.0 | 0.00 | 0.24 | 0.24 | 61 | 1002.6 |
| 20260904173101 | 78 | 337 | 1.0 | 7.0 | 0.00 | 0.24 | 0.24 | 64 | 1002.5 |
| 20260904171621 | 77 | 318 | 1.0 | 6.0 | 0.00 | 0.24 | 0.24 | 63 | 1002.7 |
| 20260904164618 | 77 | 0 | 0.0 | 9.0 | 0.00 | 0.24 | 0.24 | 64 | 1002.6 |
| 20260904163112 | 77 | 337 | 1.0 | 10.0 | 0.00 | 0.24 | 0.24 | 65 | 1002.7 |
| 20260904161615 | 76 | 307 | 2.0 | 7.0 | 0.00 | 0.24 | 0.24 | 64 | 1002.9 |
| 20260904160103 | 76 | 349 | 3.0 | 11.0 | 0.00 | 0.24 | 0.24 | 66 | 1003.2 |
| 20260904154601 | 76 | 37 | 2.0 | 7.0 | 0.00 | 0.24 | 0.24 | 69 | 1003.1 |
| 20260904153109 | 75 | 0 | 1.0 | 8.0 | 0.00 | 0.24 | 0.24 | 74 | 1003.2 |
| 20260904151606 | 74 | 79 | 2.0 | 7.0 | 0.00 | 0.24 | 0.24 | 74 | 1003.4 |
| 20260904150107 | 73 | 326 | 1.0 | 8.0 | 0.00 | 0.24 | 0.24 | 82 | 1003.7 |
| 20260904144600 | 72 | 0 | 0.0 | 3.0 | 0.00 | 0.24 | 0.24 | 89 | 1003.6 |
| 20260904143101 | 71 | 0 | 1.0 | 4.0 | 0.00 | 0.24 | 0.24 | 89 | 1003.8 |
| 20260904141604 | 71 | 0 | 1.0 | 6.0 | 0.00 | 0.24 | 0.24 | 92 | 1003.5 |
| 20260904140056 | 70 | 100 | 2.0 | 10.0 | 0.00 | 0.24 | 0.24 | 95 | 1003.3 |
| 20260904134604 | 70 | 0 | 1.0 | 3.0 | 0.00 | 0.24 | 0.24 | 96 | 1003.1 |
| 20260904133102 | 70 | 0 | 0.0 | 3.0 | 0.00 | 0.24 | 0.24 | 96 | 1003.1 |
| 20260904131602 | 70 | 0 | 0.0 | 0.0 | 0.00 | 0.24 | 0.24 | 97 | 1003.2 |
| 20260904130100 | 69 | 0 | 0.0 | 0.0 | 0.00 | 0.24 | 0.24 | 97 | 1003.3 |
| 20260904124605 | 69 | 0 | 0.0 | 0.0 | 0.00 | 0.24 | 0.24 | 96 | 1003.4 |
| 20260904123103 | 69 | 0 | 0.0 | 0.0 | 0.00 | 0.24 | 0.24 | 96 | 1003.4 |
| 20260904121559 | 68 | 0 | 0.0 | 0.0 | 0.00 | 0.24 | 0.24 | 96 | 1003.4 |
| 20260904114604 | 68 | 0 | 0.0 | 0.0 | 0.00 | 0.24 | 0.24 | 96 | 1003.0 |
| 20260904113105 | 68 | 0 | 0.0 | 0.0 | 0.00 | 0.24 | 0.24 | 96 | 1002.9 |
| 20260904111601 | 68 | 0 | 0.0 | 0.0 | 0.00 | 0.24 | 0.24 | 96 | 1002.9 |
| 20260904110129 | 68 | 0 | 0.0 | 2.0 | 0.00 | 0.24 | 0.24 | 95 | 1002.7 |
| 20260904104614 | 68 | 0 | 0.0 | 4.0 | 0.00 | 0.24 | 0.24 | 95 | 1002.6 |
| 20260904103100 | 68 | 0 | 0.0 | 2.0 | 0.00 | 0.24 | 0.24 | 95 | 1002.4 |